Le nostre stazioni meteo in Italia

Pubblicità
Il mio iltempo24.it
Brescia/Ghedi, Italia (16088): Temperatura & dewpoint: 15.09.2018 05:00:00 - 21.09.2018 05:00:00 (CEST)Brescia/Ghedi, Italia (16088): velocità del vento: 15.09.2018 05:00:00 - 21.09.2018 05:00:00 (CEST)Brescia/Ghedi, Italia (16088): direzione del vento: 15.09.2018 05:00:00 - 21.09.2018 05:00:00 (CEST)Brescia/Ghedi, Italia (16088): reduced air pressure: 15.09.2018 05:00:00 - 21.09.2018 05:00:00 (CEST)Brescia/Ghedi, Italia (16088): visibility: 15.09.2018 05:00:00 - 21.09.2018 05:00:00 (CEST)
Data & Tempo tt [°C] td [°C] ff [km/h] ff [kn] dd ppp [hPa] vv [km]
21.09.2018 05:00:00 - - - - - - -
21.09.2018 04:00:00 16,8 16,0 5 3 SSO 1017,6 6
21.09.2018 03:00:00 16,0 14,9 4 2 NNE 1017,6 6
21.09.2018 02:00:00 17,0 15,7 4 2 N 1017,6 6
21.09.2018 01:00:00 17,2 16,4 5 3 N 1017,8 6
21.09.2018 00:00:00 17,6 16,6 5 3 NNE 1017,8 6
20.09.2018 23:00:00 18,4 16,7 5 3 NNE 1017,8 6
20.09.2018 22:00:00 19,2 16,8 4 2 N 1017,9 6
20.09.2018 21:00:00 20,4 17,0 4 2 NNE 1017,7 6
20.09.2018 20:00:00 23,0 14,3 4 2 NO 1017,7 7
20.09.2018 19:00:00 26,4 13,2 4 2 O 1017,5 7
20.09.2018 18:00:00 28,2 12,1 2 1 SO 1017,6 10
20.09.2018 17:00:00 28,5 12,4 4 2 SSO 1018,0 10
20.09.2018 16:00:00 28,8 11,8 4 2 ESE 1018,3 10
20.09.2018 15:00:00 28,0 12,4 4 2 OSO 1018,7 10
20.09.2018 14:00:00 27,0 13,4 2 1 S 1019,0 10
20.09.2018 13:00:00 26,6 13,7 5 3 OSO 1019,3 8
20.09.2018 12:00:00 25,2 15,2 5 3 SSO 1019,9 8
20.09.2018 11:00:00 23,8 15,0 4 2 SSO 1020,2 8
20.09.2018 10:00:00 22,0 15,1 2 1 OSO 1020,2 8
20.09.2018 09:00:00 18,8 16,2 4 2 NNO 1019,8 8
20.09.2018 08:00:00 15,9 15,7 5 3 N 1019,7 6
20.09.2018 07:00:00 15,8 15,0 2 1 NE 1019,9 6
20.09.2018 06:00:00 16,0 15,2 2 1 E 1019,9 6
20.09.2018 05:00:00 17,2 16,1 4 2 N 1019,9 6
20.09.2018 04:00:00 17,2 16,1 11 6 ENE 1019,9 6
20.09.2018 03:00:00 17,5 16,2 8 4 ENE 1020,0 6
20.09.2018 02:00:00 17,5 16,2 5 3 ENE 1020,3 6
20.09.2018 01:00:00 18,0 16,3 8 4 ENE 1020,3 6
20.09.2018 00:00:00 18,9 17,0 8 4 ENE 1020,1 6
19.09.2018 23:00:00 19,1 17,3 5 3 NE 1020,1 6
19.09.2018 22:00:00 19,2 16,8 5 3 NE 1019,8 6
19.09.2018 21:00:00 20,3 16,7 2 1 NNE 1019,6 6
19.09.2018 20:00:00 22,4 16,0 2 1 OSO 1019,0 6
19.09.2018 19:00:00 26,2 13,7 2 1 OSO 1018,6 8
19.09.2018 18:00:00 27,0 12,6 2 1 NO 1018,6 8
19.09.2018 17:00:00 27,0 12,6 2 1 ESE 1018,8 8
19.09.2018 16:00:00 26,8 13,5 4 2 S 1019,0 8
19.09.2018 15:00:00 26,0 14,5 5 3 O 1019,6 8
19.09.2018 14:00:00 25,8 14,3 5 3 OSO 1020,1 8
19.09.2018 13:00:00 25,0 12,9 4 2 O 1020,1 8
19.09.2018 12:00:00 24,2 14,3 4 2 S 1020,4 8
19.09.2018 11:00:00 22,0 15,1 2 1 SSO 1020,5 8
19.09.2018 10:00:00 19,8 16,2 4 2 ONO 1020,5 6
19.09.2018 09:00:00 17,0 16,0 5 3 NNO 1020,1 5
19.09.2018 08:00:00 16,0 15,0 4 2 O 1019,9 5
19.09.2018 07:00:00 15,4 14,6 2 1 OSO 1019,4 6
19.09.2018 06:00:00 16,0 15,2 4 2 NNE 1019,1 7
19.09.2018 05:00:00 16,2 15,4 5 3 NE 1019,3 8
19.09.2018 04:00:00 16,4 15,4 5 3 N 1019,5 8
19.09.2018 03:00:00 17,2 15,9 5 3 NNE 1019,7 8
19.09.2018 02:00:00 17,4 16,1 8 4 NE 1019,7 8
19.09.2018 01:00:00 18,0 17,0 5 3 NNE 1019,6 8
19.09.2018 00:00:00 18,2 16,5 9 5 E 1019,4 8
18.09.2018 23:00:00 19,0 17,0 8 4 ENE 1019,3 8
18.09.2018 22:00:00 20,0 16,8 4 2 NNE 1019,1 8
18.09.2018 21:00:00 20,2 17,0 9 5 ENE 1019,0 8
18.09.2018 20:00:00 22,3 17,2 4 2 ENE 1018,5 8
18.09.2018 19:00:00 25,0 13,9 2 1 S 1018,2 8
18.09.2018 18:00:00 26,3 14,1 4 2 S 1018,3 8
18.09.2018 17:00:00 26,9 14,3 4 2 SO 1018,4 8
18.09.2018 16:00:00 26,5 13,3 4 2 SO 1018,4 8
18.09.2018 15:00:00 26,2 15,0 4 2 OSO 1019,0 8
18.09.2018 14:00:00 25,5 15,5 4 2 OSO 1019,7 6
18.09.2018 13:00:00 23,9 16,7 2 1 S 1020,1 5
18.09.2018 12:00:00 21,8 16,7 4 2 SSO 1020,4 5
18.09.2018 11:00:00 20,3 18,4 4 2 O 1020,5 5
18.09.2018 10:00:00 18,0 16,7 4 2 O 1020,5 5
18.09.2018 09:00:00 17,2 16,4 5 3 NNE 1020,0 5
18.09.2018 08:00:00 17,2 16,6 4 2 ENE 1020,4 4,0
18.09.2018 07:00:00 17,8 17,2 4 2 NNE 1020,2 3,5
18.09.2018 06:00:00 18,2 17,4 4 2 NNE 1020,2 4,0
18.09.2018 05:00:00 18,2 17,4 4 2 ENE 1020,2 5
18.09.2018 04:00:00 17,8 17,0 5 3 OSO 1020,2 5
18.09.2018 03:00:00 17,4 16,8 4 2 N 1020,2 5
18.09.2018 02:00:00 17,4 16,8 5 3 N 1020,2 5
18.09.2018 01:00:00 17,8 17,2 5 3 E 1020,2 6
18.09.2018 00:00:00 18,0 17,4 5 3 ENE 1020,2 6
17.09.2018 23:00:00 18,8 18,2 9 5 N 1020,2 6
17.09.2018 22:00:00 19,0 18,2 5 3 NO 1020,1 6
17.09.2018 21:00:00 18,8 17,1 9 5 NNO 1020,1 6
17.09.2018 20:00:00 20,0 16,4 4 2 O 1019,9 6
17.09.2018 19:00:00 21,6 16,5 21 11 NE 1019,6 5
17.09.2018 18:00:00 27,0 13,4 4 2 S 1019,0 6
17.09.2018 17:00:00 26,8 13,9 4 2 S 1019,3 7
17.09.2018 16:00:00 25,4 14,5 5 3 S 1020,0 6
17.09.2018 15:00:00 25,2 15,8 5 3 SSO 1020,5 6
17.09.2018 14:00:00 25,6 16,7 5 3 SO 1021,2 5
17.09.2018 13:00:00 24,8 16,5 5 3 SO 1021,4 6
17.09.2018 12:00:00 22,8 17,7 5 3 O 1021,9 6
17.09.2018 11:00:00 23,0 18,8 5 3 O 1022,2 5
17.09.2018 10:00:00 21,2 18,2 8 4 O 1022,1 4,5
17.09.2018 09:00:00 20,2 19,0 5 3 NNO 1021,9 4,5
17.09.2018 08:00:00 19,0 18,2 2 1 NO 1021,9 5
17.09.2018 07:00:00 18,8 17,8 4 2 SO 1021,5 6
17.09.2018 06:00:00 19,0 18,2 5 3 NNE 1021,5 10
17.09.2018 05:00:00 18,9 17,6 4 2 NE 1021,5 10
17.09.2018 04:00:00 19,0 17,1 8 4 NE 1021,5 10
17.09.2018 03:00:00 19,0 17,1 8 4 NE 1021,5 10
17.09.2018 02:00:00 20,2 17,8 8 4 ENE 1022,3 10
17.09.2018 01:00:00 20,2 18,0 8 4 ENE 1022,3 10
17.09.2018 00:00:00 19,8 17,9 8 4 E 1022,3 10
16.09.2018 23:00:00 19,8 18,1 4 2 NNE 1022,2 10
16.09.2018 22:00:00 20,1 17,7 9 5 ENE 1021,9 10
16.09.2018 21:00:00 21,2 17,6 5 3 NE 1021,5 10
16.09.2018 20:00:00 23,6 16,6 5 3 SE 1021,1 10
16.09.2018 19:00:00 26,2 15,3 9 5 SE 1020,7 10
16.09.2018 18:00:00 27,6 15,0 11 6 ESE 1020,6 10
16.09.2018 17:00:00 27,6 15,0 8 4 SE 1020,9 10
16.09.2018 16:00:00 27,4 14,1 9 5 SE 1021,0 10
16.09.2018 15:00:00 27,0 15,1 11 6 SE 1021,2 10
16.09.2018 14:00:00 26,4 16,4 11 6 E 1021,9 10
16.09.2018 13:00:00 26,0 15,7 15 8 ESE 1022,2 10
16.09.2018 12:00:00 25,4 17,1 13 7 ENE 1022,3 10
16.09.2018 11:00:00 24,0 18,0 15 8 ESE 1022,7 8
16.09.2018 10:00:00 22,2 18,6 9 5 SE 1022,5 8
16.09.2018 09:00:00 20,6 18,9 4 2 E 1022,3 8
16.09.2018 08:00:00 17,2 16,7 5 3 ESE 1022,0 8
16.09.2018 07:00:00 17,6 17,1 8 4 E 1021,0 8
16.09.2018 06:00:00 18,2 17,7 9 5 E 1021,2 10
16.09.2018 05:00:00 19,0 18,2 5 3 NE 1021,1 10
16.09.2018 04:00:00 19,0 18,4 9 5 ENE 1021,1 10
16.09.2018 03:00:00 19,0 18,2 5 3 NE 1021,1 10
16.09.2018 02:00:00 19,0 18,4 9 5 ENE 1021,1 10
16.09.2018 01:00:00 19,0 18,5 9 5 NE 1021,1 10
16.09.2018 00:00:00 19,2 18,5 9 5 ENE 1021,1 10
15.09.2018 23:00:00 19,8 18,6 8 4 NE 1021,0 10
15.09.2018 22:00:00 19,8 18,3 9 5 ENE 1020,7 10
15.09.2018 21:00:00 20,8 18,0 4 2 E 1019,9 10
15.09.2018 20:00:00 23,4 17,4 8 4 SSE 1019,5 10
15.09.2018 19:00:00 26,2 16,2 11 6 SE 1019,2 10
15.09.2018 18:00:00 27,9 14,5 8 4 SE 1019,2 10
15.09.2018 17:00:00 28,4 15,0 5 3 E 1019,2 10
15.09.2018 16:00:00 27,9 15,9 4 2 E 1019,6 10
15.09.2018 15:00:00 27,7 16,7 5 3 SSE 1020,2 10
15.09.2018 14:00:00 26,6 16,8 8 4 ESE 1020,3 10
15.09.2018 13:00:00 25,2 16,6 13 7 ESE 1020,4 8
15.09.2018 12:00:00 24,6 16,6 9 5 SE 1020,4 7
15.09.2018 11:00:00 23,2 17,2 8 4 ESE 1020,2 6
15.09.2018 10:00:00 21,9 17,9 9 5 SE 1019,6 6
15.09.2018 09:00:00 20,0 18,3 11 6 SE 1019,5 5
15.09.2018 08:00:00 19,2 17,5 9 5 SSE 1018,6 5
15.09.2018 07:00:00 18,8 17,8 4 2 E 1018,0 6
15.09.2018 06:00:00 18,2 18,0 4 2 NO 1017,3 7
15.09.2018 05:00:00 18,6 18,3 4 2 SE 1016,9 7

tt = Temperatura
td = dewpoint
ff = velocità del vento
dd = direzione del vento
ppp = reduced air pressure
vv = visibility

Stazioni seguenti

WeatherPro
AMSI
MeteoEarth